CFG016 EDDF-KJFK

Flight info

Callsign CFG016
Flight time N/A
Altitude 34000
Route OBOKA3M OBOKA Z29 TORNU DCT VICOT DCT GALSO Q63 ERING L179 UGBET Q60 OKSAW DCT TEWXI DCT VATRY DCT TORLU DCT AGINI DCT DOGAL/M083F360 DCT 54N020W 53N030W 5130N04000W 50N050W DCT ELSIR/N0477F360 N402C ALLEX DCT ENE PARCH4
Aircraft A339/H-SDE1E2E3GHIJ1J4J7LM1OP2RVWXYZ/LB1D1

Departure

Time 2026-05-07 16:55
Airport Frankfurt Main Airport (EDDF)

Arrival

Time N/A
Airport John F. Kennedy International Airport (KJFK)
Time Latitude Longitude Altitude Speed Heading
2026-05-07 16:21 50.04752 8.57457 380 ft 0 kts 45°
2026-05-07 16:43 50.04750 8.57454 380 ft 1 kts 45°
2026-05-07 16:44 50.04739 8.57438 380 ft 2 kts 36°
2026-05-07 16:44 50.04726 8.57426 380 ft 2 kts 30°
2026-05-07 16:44 50.04713 8.57416 380 ft 2 kts 23°
2026-05-07 16:44 50.04700 8.57408 380 ft 2 kts 16°
2026-05-07 16:45 50.04686 8.57403 380 ft 2 kts 12°
2026-05-07 16:45 50.04671 8.57398 380 ft 2 kts 13°
2026-05-07 16:45 50.04657 8.57392 380 ft 2 kts 14°
2026-05-07 16:45 50.04642 8.57387 380 ft 2 kts 13°
2026-05-07 16:46 50.04628 8.57381 380 ft 2 kts 13°
2026-05-07 16:46 50.04614 8.57376 380 ft 2 kts 13°
2026-05-07 16:46 50.04600 8.57371 380 ft 2 kts 19°
2026-05-07 16:46 50.04587 8.57361 380 ft 2 kts 39°
2026-05-07 16:47 50.04577 8.57344 380 ft 2 kts 55°
2026-05-07 16:47 50.04570 8.57325 380 ft 2 kts 71°
2026-05-07 16:47 50.04565 8.57303 380 ft 2 kts 71°
2026-05-07 16:47 50.04562 8.57290 380 ft 0 kts 69°
2026-05-07 16:50 50.04565 8.57301 380 ft 2 kts 69°
2026-05-07 16:50 50.04575 8.57343 380 ft 5 kts 70°
2026-05-07 16:51 50.04593 8.57425 380 ft 9 kts 76°
2026-05-07 16:51 50.04568 8.57509 380 ft 9 kts 150°
2026-05-07 16:51 50.04504 8.57556 380 ft 10 kts 145°
2026-05-07 16:51 50.04469 8.57654 380 ft 11 kts 95°
2026-05-07 16:52 50.04484 8.57770 380 ft 10 kts 72°
2026-05-07 16:52 50.04509 8.57876 380 ft 11 kts 70°
2026-05-07 16:52 50.04538 8.57998 380 ft 12 kts 70°
2026-05-07 16:52 50.04568 8.58126 380 ft 12 kts 70°
2026-05-07 16:53 50.04601 8.58262 380 ft 13 kts 70°
2026-05-07 16:53 50.04635 8.58403 380 ft 14 kts 70°
2026-05-07 16:53 50.04650 8.58522 380 ft 6 kts 105°
2026-05-07 16:53 50.04619 8.58580 380 ft 7 kts 155°
2026-05-07 16:54 50.04565 8.58610 380 ft 8 kts 160°
2026-05-07 16:54 50.04516 8.58637 380 ft 4 kts 175°
2026-05-07 16:54 50.04493 8.58606 380 ft 5 kts 247°
2026-05-07 16:54 50.04467 8.58506 380 ft 28 kts 250°
2026-05-07 16:55 50.04319 8.57882 380 ft 92 kts 249°
2026-05-07 16:55 50.04028 8.56660 380 ft 147 kts 249°
2026-05-07 16:55 50.03619 8.54952 455 ft 184 kts 250°
2026-05-07 16:55 50.03198 8.53079 1018 ft 185 kts 251°
2026-05-07 16:56 50.02770 8.51235 1722 ft 182 kts 252°
2026-05-07 16:56 50.02675 8.49369 2310 ft 179 kts 285°
2026-05-07 16:56 50.03052 8.45561 3032 ft 192 kts 276°
2026-05-07 16:57 50.03005 8.43500 3307 ft 203 kts 262°
2026-05-07 16:57 50.02718 8.41335 3514 ft 217 kts 259°
2026-05-07 16:57 50.02392 8.39053 3819 ft 228 kts 261°
2026-05-07 16:57 50.02081 8.36589 4086 ft 241 kts 262°
2026-05-07 16:58 50.01773 8.34055 4365 ft 254 kts 260°
2026-05-07 16:58 50.01437 8.31349 4692 ft 265 kts 261°
2026-05-07 16:58 50.01305 8.28479 5165 ft 267 kts 280°
2026-05-07 16:58 50.01803 8.25759 5725 ft 266 kts 296°
2026-05-07 16:59 50.02577 8.23156 6295 ft 267 kts 297°
2026-05-07 16:59 50.03364 8.20571 6849 ft 269 kts 296°
2026-05-07 16:59 50.04137 8.17999 7396 ft 271 kts 296°
2026-05-07 16:59 50.04881 8.15479 7909 ft 273 kts 295°
2026-05-07 17:00 50.05719 8.12859 8434 ft 274 kts 300°
2026-05-07 17:00 50.06766 8.10369 8964 ft 276 kts 307°
2026-05-07 17:00 50.07936 8.08052 9486 ft 278 kts 308°
2026-05-07 17:00 50.09149 8.05715 9994 ft 281 kts 308°
2026-05-07 17:01 50.10389 8.03326 10411 ft 287 kts 308°
2026-05-07 17:01 50.11643 8.00898 10644 ft 300 kts 308°
2026-05-07 17:01 50.12970 7.98320 10877 ft 312 kts 308°
2026-05-07 17:01 50.14347 7.95644 11105 ft 325 kts 308°
2026-05-07 17:02 50.15794 7.92827 11333 ft 337 kts 308°
2026-05-07 17:02 50.17275 7.89936 11576 ft 348 kts 308°
2026-05-07 17:02 50.18791 7.86973 12023 ft 353 kts 308°
2026-05-07 17:02 50.20328 7.83965 12563 ft 355 kts 308°
2026-05-07 17:03 50.21852 7.80978 12940 ft 357 kts 308°
2026-05-07 17:03 50.23421 7.77905 13316 ft 362 kts 308°
2026-05-07 17:03 50.25125 7.75054 13878 ft 363 kts 318°
2026-05-07 17:03 50.27163 7.72757 14421 ft 366 kts 329°